Preview of NWS' New Version of Forecast
This preview is not operational and should not be used for support decisions.

Regional Weather Roundup (RWR)

Issued by National Weather Service (NWS)

                            
000
ASUS43 KDTX 191501
RWRMI 
MICHIGAN HOURLY REGIONAL WEATHER ROUNDUP
NATIONAL WEATHER SERVICE DETROIT/PONTIAC MI
1000 AM EST TUE FEB 19 2019

NOTE: "FAIR" INDICATES FEW OR NO CLOUDS BELOW 12,000 FEET WITH NO
SIGNIFICANT WEATHER AND/OR OBSTRUCTION TO VISIBILITY.

MIZ047>049-052>055-059>063-066>070-074>076-081>083-191600-
SOUTHEAST LOWER MICHIGAN
  
CITY           SKY/WX    TMP DP  RH WIND       PRES   REMARKS
ADRIAN         FAIR      18  10  71 N5        30.68R WCI  11          
ALMA           FAIR       8   3  81 CALM      30.67S                  
ANN ARBOR      FAIR      17   9  70 CALM      30.67R                  
BAD AXE        FAIR      12   8  84 CALM      30.65R                  
CARO           FAIR      10   6  81 CALM      30.66S                  
DETROIT CITY   FAIR      18  10  71 N3        30.68R                  
DETROIT        PTSUNNY   20  10  65 CALM      30.68R                  
FLINT          FAIR      13   7  77 CALM      30.67R                  
GROSSE ILE     FAIR      22  13  68 NW3       30.67R                  
HILLSDALE      FAIR      20  10  65 CALM      30.62S                  
HOWELL         FAIR      10   6  83 CALM      30.66R                  

CITY           SKY/WX    TMP DP  RH WIND       PRES   REMARKS
JACKSON        FAIR      16   9  74 CALM      30.65R                  
LAMBERTVILLE   FAIR      22  15  76 NW3       30.68R                  
LANSING        FAIR      12   7  80 SE5       30.66S WCI   4          
LAPEER         FAIR       7   2  82 CALM      30.66R                  
MASON          FAIR      10   7  89 CALM      30.66R                  
MONROE         FAIR      20  12  72 NW3       30.68R                  
MT. CLEMENS    PTSUNNY   11  11  98 N3        30.66R                  
PONTIAC        PTSUNNY   10   5  80 CALM      30.63R                  
PORT HOPE        N/A     16   8  71 SW8       30.64R WCI   5          
PORT HURON     FAIR       9   7  92 CALM      30.67R                  
TRI CITIES     FAIR       9   4  80 SW6       30.68R WCI  -1          
MIDLAND        FAIR      10   5  82 CALM      30.67S                  
TROY           FAIR      16   7  66 CALM      30.69R                  
SAGINAW HB     FAIR      12   5  73 SW3       30.67S                  
$$
MIZ043>046-050>051-056>058-064>065-071>073-077>080-191600-
SOUTHWEST LOWER MICHIGAN
  
CITY           SKY/WX    TMP DP  RH WIND       PRES   REMARKS
BATTLE CREEK   PTSUNNY   16   8  71 CALM      30.65R                  
BENTON HARBOR  CLOUDY    25  14  63 SE8       30.65R WCI  16          
BIG RAPIDS     CLOUDY     2  -1  86 CALM      30.62S                  
COLDWATER      PTSUNNY   21  11  65 E3        30.65S                  
FREMONT        CLOUDY    12   9  87 S5        30.64S WCI   4          
HOLLAND        CLOUDY    16   8  71 SE6       30.65S WCI   7          
GRAND RAPIDS   PTSUNNY   11   4  73 SE6       30.65S WCI   1          
IONIA          FAIR       8   4  82 CALM      30.66R                  
KALAMAZOO      CLOUDY    19   8  62 SE3       30.66R                  
LUDINGTON      FAIR      19  10  65 S6        30.62S WCI  11          
MOUNT PLEASANT FAIR      13   9  82 S5        30.64S WCI   6          
MUSKEGON       PTSUNNY   17   7  64 SE12      30.65S WCI   4          
SOUTH HAVEN    CLOUDY    23  14  68 SE7       30.65S WCI  14          
$$
MIZ016>042-191600-
NORTHERN LOWER MICHIGAN
  
CITY           SKY/WX    TMP DP  RH WIND       PRES   REMARKS
ALPENA         FAIR      10   4  76 SW7       30.63R WCI  -1          
BEAVER ISLAND  FAIR      17  13  86 SE7       30.58R WCI   7          
BELLAIRE       PTSUNNY    6   2  84 CALM      30.62S                  
CADILLAC       FLURRIES   6   2  82 S3        30.55S                  
CHARLEVOIX     CLOUDY     9   4  81 E5        30.62S WCI   1          
FRANKFORT      FAIR      21  12  68 S7        30.60R WCI  12          
GAYLORD        CLOUDY     7   3  84 S3        30.55R                  
GRAYLING       FAIR       0  -4  80 CALM      30.57S                  
HARBOR SPRINGS PTSUNNY    7   2  77 CALM      30.59S                  
HOUGHTON LAKE  FAIR       7   3  84 CALM      30.59S                  
MANISTEE       FAIR      20  10  65 S7        30.62R WCI  11          
OSCODA         FAIR      10   3  74 SW8       30.64S WCI  -2          
PELLSTON       FAIR       0  -6  76 CALM      30.61R                  
ROGERS CITY    FAIR      13   5  70 SW8       30.63R WCI   2          
TRAVERSE CITY  FAIR      18  10  71 S5        30.59S WCI  11          
$$
MIZ007>008-015-191600-
EASTERN UPPER MICHIGAN
  
CITY           SKY/WX    TMP DP  RH WIND       PRES   REMARKS
KINROSS        FAIR      18   8  65 W3        30.57R                  
MACKINAC ISLAN FAIR      13   7  77 SW3       30.60R                  
NEWBERRY       FAIR      10   2  72 MISG      30.55R                  
S. S. MARIE    FAIR       7   3  84 CALM      30.57S                  
MUNISING         N/A     11   4  73 SW7       30.56S WCI   0          
$$
MIZ004>006-011>014-085-191600-
CENTRAL UPPER MICHIGAN
  
CITY           SKY/WX    TMP DP  RH WIND       PRES   REMARKS
MANISTIQUE     FAIR       9  -1  65 CALM      30.57R                  
ESCANABA       FAIR      10   1  67 CALM      30.59R                  
MENOMINEE      FAIR       7   3  84 VRB3      30.61R                  
SAWYER-GWINN   SUNNY     -6  -9  84 CALM      30.50S                  
$$
MIZ001>003-009>011-084-191600-
WESTERN UPPER MICHIGAN
  
CITY           SKY/WX    TMP DP  RH WIND       PRES   REMARKS
IRON MOUNTAIN  FAIR      -4  -4 100 CALM      30.52R                  
HOUGHTON       FAIR       8  -1  66 W6        30.47S WCI  -2          
COPPER HARBOR    N/A     13  -4  46 W5        30.51R WCI   5          
IRONWOOD       FAIR       9   0  67 SW9       30.49F WCI  -4          
$$

ABBREVIATIONS USED IN REMARKS
   TC - TEMPERATURE IN CELSIUS
  WCI - WIND CHILL INDEX
   HX - HEAT INDEX
  VSB - VISIBILITY